Regional Weather Roundup
Issued by NWS

Home | Current Version | Previous Version | Text Only | Print | Product List | Glossary On
Versions: 1 2 3 4 5 6 7 8 9 10 11 12 13 14 15 16 17 18 19 20 21 22 23 24 25 26 27 28 29 30 31 32 33 34 35 36 37 38 39 40 41 42 43 44 45 46 47 48 49 50
000
ASUS44 KFWD 200215
RWRTX
NORTH TEXAS HOURLY WEATHER ROUNDUP
NATIONAL WEATHER SERVICE FORT WORTH TX
800 PM CST SUN FEB 19 2017

NOTE: "FAIR" INDICATES FEW OR NO CLOUDS BELOW 12,000 FEET WITH NO
SIGNIFICANT WEATHER AND/OR OBSTRUCTIONS TO VISIBILITY.

TXZ118-119-200300-
DALLAS/FORT WORTH METROPLEX

CITY           SKY/WX    TMP DP  RH WIND       PRES   REMARKS
DFW AIRPORT    MOCLDY    72  66  81 SE17      29.81S
DALLAS LOVE    CLOUDY    72  65  78 SE17      29.83R
FTW MEACHAM    CLOUDY    73  64  73 SE13G22   29.80S
DAL-EXECUTIVE  CLOUDY    71  66  84 SE14G23   29.83R
FTW-ALLIANCE   CLOUDY    71  64  78 SE20G26   29.79F
FTW-NAS-JRB    CLOUDY    73  65  75 SE16G23   29.80S
FTW-SPINKS     MOCLDY    71  65  81 SE12G17   29.83R
ARLINGTON      PTCLDY    70  64  81 SE17      29.82S
GRAND PRAIRIE  CLEAR     70  64  79 SE13G25   29.84S
ADDISON        MOCLDY    70  64  83 SE14G24   29.84S
MESQUITE       PTCLDY    70  64  83 SE13G18   29.86R
LANCASTER      PTCLDY    69  65  85 SE9       29.86R
$$

TXZ091>094-102>105-117-120-121-131>134-200300-
NORTH CENTRAL TEXAS

CITY           SKY/WX    TMP DP  RH WIND       PRES   REMARKS
SHRMAN/DENISON PTCLDY    69  64  81 SE15G21   29.85S
GAINESVILLE    CLOUDY    69  63  83 SE13      29.83F
BOWIE          CLOUDY    69  65  85 E9G18     29.79S
BRIDGEPORT     MOCLDY    70  64  83 SE9       29.81R
DECATUR        MOCLDY    69  64  84 SE14G23   29.80R
DENTON         PTCLDY    70  65  84 SE17      29.80F
MCKINNEY       CLEAR     69  66  90 SE13      29.85R
BONHAM         CLOUDY    68  63  83 E8        29.87S
GREENVILLE     CLOUDY    70  63  78 SE10      29.88R
ROCKWALL       PTCLDY    69  66  91 SE9       29.85S
TERRELL        CLOUDY    71  65  81 SE13G22   29.87R
WAXAHACHIE     MOCLDY    69  65  89 E9G17     29.85S
CLEBURNE       PTCLDY    72  68  88 E15G22    29.82S
GRANBURY       MOCLDY    73  65  76 SE10      29.81R
$$

TXZ083>090-098>101-113>116-127>130-139>142-154-155-200300-
WESTERN NORTH TEXAS

CITY           SKY/WX    TMP DP  RH WIND       PRES   REMARKS
WICHITA FALLS  TSTM      57  56  96 SE7       29.79R FOG
WF-KICKAPOO    TSTM      60  58  91 SW5G16    29.80R
VERNON         CLOUDY    64  60  87 CALM      29.79F
ABILENE        LGT RAIN  57  50  77 NW7       29.86R
ABILENE-DYESS  LGT RAIN  59  50  72 N6        29.85R
GRAHAM         CLOUDY    64  64 100 SW3       29.79R
BRECKENRIDGE   TSTM      63  61  94 W14       29.84R
CISCO          CLOUDY    63  59  88 W18G29    29.85R
RANGER         CLOUDY    70  63  78 SE10      29.80S
MINERAL WELLS  CLOUDY    70  64  81 SE9       29.78R
STEPHENVILLE   CLOUDY    71  62  74 SE12      29.82R
COMANCHE       MOCLDY    71  64  78 S9        29.81R
BROWNWOOD      CLOUDY    63  52  67 NW15G29   29.84R
COLEMAN        CLOUDY    59  55  84 W7        29.87R THUNDER
$$

TXZ143>147-156>162-174-175-200300-
CENTRAL TEXAS

CITY           SKY/WX    TMP DP  RH WIND       PRES   REMARKS
WACO           CLEAR     72  65  78 SE16G23   29.80F
WACO-TSTC      PTCLDY    72  64  78 SE8       29.82F
WACO-MCGREGOR  CLEAR     71  66  84 SE15      29.81F
HILLSBORO      CLEAR     71  65  83 SE10      29.82F
CORSICANA      PTCLDY    69  67  93 SE9       29.87S FOG
MEXIA          MOCLDY    70  65  85 SE15G23   29.84F
HEARNE         MOCLDY    73  66  78 SE9       29.85F
CAMERON        PTCLDY    73  66  80 SE8       29.82F
TEMPLE         CLEAR     71  66  84 SE16      29.82F
KILLEEN        MOCLDY    70  66  86 SE14      29.81R
KILLEEN-SKYLRK CLOUDY    71  66  84 SE10      29.82S
FORT HOOD      CLOUDY    70  65  85 SE17      29.79S
GATESVILLE     PTCLDY    72  64  78 SE8       29.84R
HAMILTON       CLOUDY    71  64  80 S15       29.81R
LAMPASAS       PTCLDY    71  67  87 SE8       29.81R
$$

TXZ095>097-106>112-122>126-135>138-148>153-164>167-200300-
EAST TEXAS

CITY           SKY/WX    TMP DP  RH WIND       PRES   REMARKS
PARIS          MOCLDY    66  61  82 E8        29.91S
SULPHUR SPRNGS CLOUDY    71  64  79 SE8       29.91R
MOUNT PLEASANT CLEAR     70  59  67 E8        29.91F
GILMER         PTCLDY    69  64  82 SE5       29.90S
MINEOLA        PTCLDY    68  64  88 SE3       29.90R
TYLER          CLEAR     70  65  84 SE12      29.89R FOG
LONGVIEW       PTCLDY    72  65  78 SE8       29.90S
MARSHALL       PTCLDY    70  61  72 SE5       29.95R
ATHENS         CLOUDY    68  66  94 SE6       29.87S
PALESTINE      CLOUDY    70  68  91 E8        29.90R
JACKSONVILLE   CLEAR     69  67  93 SE8       29.92R
HENDERSON      MOCLDY    71  64  80 SE8       29.92R
CENTER         MOCLDY    74  68  81 SE5       29.94R
NACOGDOCHES    CLOUDY    70  64  83 SE9       29.91R
LUFKIN         MOCLDY    69  64  84 SE10      29.92R
$$

SUPPLEMENTAL OBSERVATIONS (CENTRAL)

CITY           SKY/WX    TMP DP  RH WIND       PRES   REMARKS
DENISON DAM      N/A     66  61  82 SE9         N/A
CADDO GRASSLND   N/A     66  61  82 E3          N/A
PAT MAYSE LAKE   N/A     64  63  94 NE8         N/A
GREENVILLE       N/A     70  63  78 SE9         N/A
CEDAR HILL       N/A     70  64  83 SE9G17      N/A
LAKE LIMESTONE   N/A     73  63  68 SE8         N/A
MCGREGOR         N/A     72  66  83 SE12        N/A
TEMPLE           N/A     72  66  83 SE10        N/A
$$

SUPPLEMENTAL OBSERVATIONS (WEST)

CITY           SKY/WX    TMP DP  RH WIND       PRES   REMARKS
MILLERS CREEK    N/A     57  52  82 W13G37      N/A
POSSUM KINGDOM   N/A     64  63  94 W2          N/A
LBJ GRASSLAND    N/A     70  64  83 SE14        N/A
GRANBURY         N/A     73  64  73 SE12        N/A
COMANCHE         N/A     72  63  73 S13         N/A
HAMBY            N/A     57  50  77 NW7G22      N/A
IVIE RESERVOIR   N/A     57  50  77 NW12        N/A
COLORADO BEND    N/A     70  63  78 S12         N/A
$$

SUPPLEMENTAL OBSERVATIONS (EAST)

CITY           SKY/WX    TMP DP  RH WIND       PRES   REMARKS
CLARKSVILLE      N/A     66  59  77 E6          N/A
TEXARKANA        N/A     68  55  64 E1          N/A
LINDEN           N/A     66  59  77 E2          N/A
CADDO LAKE       N/A    N/A N/A N/A S1          N/A
GILMER           N/A     70  63  78 SE3         N/A
HENDERSON        N/A     72  64  78 SE7         N/A
LUFKIN           N/A     72  64  78 MISG        N/A
N SABINE NF      N/A     68  63  83 MISG        N/A
S SABINE NF      N/A     70  64  83 SE3         N/A
$$

SUPPLEMENTAL OBSERVATIONS ARE A COLLECTION OF AUTOMATED INSTRUMENTS
THAT ARE MAINTAINED BY A VARIETY OF FEDERAL AND STATE AGENCIES.
CERTAIN ELEMENTS...SUCH AS HUMIDITY VALUES AND SUSTAINED WIND
SPEEDS...MAY BE APPROXIMATED.





USA.gov is the U.S. government's official web portal to all federal, state and local government web resources and services.